JA9GIL-13 Weather Reports


time (UTC)temp
F
wind
direction
speed
knots
gust
knots
rain 1hr
in
rain 24hr
in
rain mn
in
humidity
%
barometer
mb
20260509150734 48 307 0.0 0.9 0.00 0.12 0.00 82 1018.4
20260509145833 49 315 0.0 0.9 0.00 0.12 0.12 82 1018.5
20260509144934 49 315 0.0 0.9 0.00 0.12 0.12 82 1018.5
20260509142234 49 315 0.0 0.9 0.00 0.12 0.12 82 1018.5
20260509140434 50 306 0.0 0.9 0.00 0.12 0.12 82 1018.4
20260509134634 50 270 0.0 0.9 0.00 0.12 0.12 82 1018.5
20260509133734 51 270 0.0 0.9 0.00 0.12 0.12 82 1018.4
20260509132833 51 290 0.0 1.7 0.00 0.12 0.12 82 1018.6
20260509131034 51 45 0.0 0.9 0.00 0.12 0.12 80 1018.5
20260509130133 51 45 0.0 0.9 0.00 0.12 0.12 80 1018.3
20260509125234 52 46 0.0 1.7 0.00 0.12 0.12 78 1018.4
20260509124334 52 45 0.9 1.7 0.00 0.12 0.12 77 1018.2
20260509123435 52 45 0.0 0.9 0.00 0.12 0.12 78 1018.3
20260509122534 53 58 0.0 1.7 0.00 0.12 0.12 78 1018.3
20260509121634 53 6 0.0 1.7 0.00 0.12 0.12 77 1018.1
20260509120734 54 45 0.0 0.9 0.00 0.12 0.12 75 1018.0
20260509115834 54 45 0.0 0.9 0.00 0.12 0.12 74 1018.0
20260509114934 54 23 0.0 1.7 0.00 0.12 0.12 72 1017.9
20260509114034 55 338 0.9 2.6 0.00 0.12 0.12 72 1018.1
20260509113133 55 44 0.0 2.6 0.00 0.12 0.12 71 1017.6
20260509112234 55 33 0.9 1.7 0.00 0.12 0.12 71 1017.7
20260509111334 56 46 0.0 1.7 0.00 0.12 0.12 70 1017.4
20260509110433 56 32 0.0 2.6 0.00 0.12 0.12 70 1017.4
20260509105534 56 41 0.9 1.7 0.00 0.12 0.12 70 1017.3
20260509104634 57 51 0.9 3.5 0.00 0.12 0.12 68 1017.0
20260509103734 57 37 0.9 2.6 0.00 0.12 0.12 67 1017.0
20260509101934 58 54 1.7 5.2 0.00 0.12 0.12 65 1016.9
20260509101034 58 53 0.0 3.5 0.00 0.12 0.12 62 1016.9
20260509100133 59 48 2.6 7.0 0.00 0.12 0.12 61 1016.5
20260509095234 59 72 0.9 3.5 0.00 0.12 0.12 60 1016.4
20260509093434 61 46 1.7 5.2 0.00 0.13 0.12 53 1016.3
20260509091634 63 48 1.7 6.1 0.00 0.13 0.12 51 1016.3
20260509090734 63 33 3.5 7.0 0.00 0.13 0.12 51 1016.3
20260509084933 63 46 0.9 3.5 0.00 0.13 0.12 50 1016.0
20260509084034 64 47 1.7 3.5 0.00 0.13 0.12 45 1016.3
20260509083134 64 47 1.7 3.5 0.00 0.13 0.12 46 1016.0
20260509082233 64 34 2.6 3.5 0.00 0.13 0.12 44 1015.9
20260509081333 64 31 1.7 3.5 0.00 0.13 0.12 45 1016.0
20260509080434 65 61 1.7 3.5 0.00 0.13 0.12 47 1016.2
20260509074634 66 50 1.7 5.2 0.00 0.13 0.12 43 1015.6
20260509072834 67 47 2.6 5.2 0.00 0.13 0.12 43 1015.3
20260509071933 67 62 2.6 7.0 0.00 0.13 0.12 44 1015.2
20260509071033 67 48 3.5 5.2 0.00 0.13 0.12 44 1015.3
20260509065234 69 40 2.6 6.1 0.00 0.13 0.12 42 1015.4
20260509063434 71 56 1.7 7.8 0.00 0.13 0.12 40 1015.2
20260509062534 71 38 3.5 5.2 0.00 0.13 0.12 40 1015.3
20260509061634 71 44 2.6 7.0 0.00 0.13 0.12 40 1015.1
20260509060733 71 13 2.6 7.0 0.00 0.13 0.12 41 1014.9
20260509055833 71 22 2.6 6.1 0.00 0.13 0.12 38 1015.3
20260509054934 72 40 1.7 5.2 0.00 0.13 0.12 38 1015.3
20260509054034 72 52 1.7 7.0 0.00 0.13 0.12 32 1015.4
20260509053135 74 23 1.7 7.0 0.00 0.13 0.12 32 1015.2
20260509052233 73 41 2.6 3.5 0.00 0.13 0.12 33 1015.1
20260509051333 72 49 1.7 7.8 0.00 0.13 0.12 38 1015.2
20260509050433 72 54 1.7 7.8 0.00 0.13 0.12 38 1015.3
20260509045533 72 64 3.5 7.8 0.00 0.13 0.12 36 1015.6
20260509044633 72 67 2.6 7.0 0.00 0.13 0.12 37 1015.6
20260509043733 72 317 1.7 5.2 0.00 0.13 0.12 35 1015.6
20260509042834 71 56 1.7 4.3 0.00 0.13 0.12 35 1015.7
20260509041933 72 27 1.7 3.5 0.00 0.13 0.12 35 1015.8
20260509041033 71 54 2.6 7.0 0.00 0.13 0.12 36 1016.1
20260509040134 71 65 2.6 8.7 0.00 0.13 0.12 40 1015.9
20260509035233 69 52 1.7 7.0 0.00 0.13 0.12 41 1015.8
20260509034333 69 31 4.3 7.0 0.00 0.13 0.12 40 1015.7
20260509033434 69 34 2.6 7.0 0.00 0.13 0.12 43 1015.9
20260509032534 68 15 2.6 7.0 0.00 0.13 0.12 43 1015.8
20260509031633 68 41 3.5 6.1 0.00 0.13 0.12 42 1015.7
20260509025833 68 16 1.7 3.5 0.00 0.13 0.12 42 1016.1
20260509024934 69 16 1.7 3.5 0.00 0.13 0.12 44 1016.2
20260509024034 69 31 1.7 5.2 0.00 0.13 0.12 43 1016.0
20260509023134 69 63 2.6 4.3 0.00 0.13 0.12 45 1016.0
20260509022233 66 355 1.7 4.3 0.00 0.13 0.12 48 1016.3
20260509015534 66 29 3.5 7.8 0.00 0.13 0.12 49 1016.1
20260509014634 65 44 3.5 4.3 0.00 0.13 0.12 52 1016.2
20260509012834 62 13 1.7 6.1 0.00 0.13 0.12 63 1016.3
20260509011934 60 58 3.5 7.8 0.00 0.13 0.12 64 1016.3
20260509005234 61 336 2.6 3.5 0.00 0.13 0.12 69 1016.0
20260509004334 59 299 0.0 2.6 0.00 0.13 0.12 71 1015.8
20260509001634 56 352 0.9 4.3 0.00 0.13 0.12 71 1016.2
20260509000734 56 15 1.7 3.5 0.00 0.13 0.12 72 1015.9
20260508234034 57 315 1.7 3.5 0.00 0.13 0.12 72 1015.7
20260508232234 58 280 1.7 5.2 0.00 0.13 0.12 75 1016.1
20260508231333 59 279 1.7 6.1 0.00 0.13 0.12 83 1016.2
20260508230435 58 285 1.7 3.5 0.00 0.13 0.12 90 1016.1
20260508225533 56 257 0.9 2.6 0.00 0.13 0.12 91 1016.1
20260508223733 53 297 0.0 2.6 0.00 0.13 0.12 93 1016.3
20260508222835 52 302 0.0 1.7 0.00 0.13 0.12 93 1015.9
20260508221034 51 356 0.0 1.7 0.00 0.13 0.12 92 1016.0
20260508215234 50 1 0.0 0.9 0.00 0.13 0.12 91 1016.0
20260508213434 50 330 0.9 1.7 0.00 0.13 0.12 91 1016.0
20260508212533 50 324 0.0 1.7 0.00 0.13 0.12 91 1015.8
20260508211633 50 356 0.9 2.6 0.00 0.13 0.12 91 1015.6
20260508205834 50 328 1.7 3.5 0.06 0.13 0.12 91 1015.3
20260508204934 50 44 1.7 5.2 0.06 0.13 0.12 91 1015.2
20260508204034 50 328 3.5 9.6 0.06 0.13 0.12 91 1014.7
20260508203134 50 50 1.7 6.1 0.06 0.13 0.12 91 1014.4
20260508202233 51 38 3.5 6.1 0.06 0.13 0.12 91 1014.1
20260508201334 51 351 1.7 4.3 0.04 0.11 0.11 90 1013.9
20260508195534 51 12 1.7 5.2 0.01 0.07 0.06 90 1013.2
20260508193734 51 11 2.6 7.0 0.04 0.07 0.06 87 1012.7
20260508192833 51 311 4.3 7.0 0.06 0.07 0.06 85 1012.5
20260508190134 51 335 1.7 4.3 0.05 0.06 0.05 81 1011.9
20260508185234 51 32 2.6 6.1 0.05 0.06 0.05 80 1011.7
20260508184333 52 344 2.6 7.0 0.02 0.04 0.02 77 1011.7
20260508183433 52 317 3.5 4.3 0.02 0.04 0.02 75 1011.3
20260508182534 52 356 1.7 7.0 0.00 0.01 0.00 74 1011.0
20260508181633 52 339 3.5 7.0 0.00 0.01 0.00 74 1011.0
20260508180733 53 6 1.7 6.1 0.00 0.01 0.00 74 1010.8
20260508174934 54 23 2.6 7.8 0.00 0.01 0.00 72 1010.8
20260508174033 55 19 1.7 8.7 0.00 0.01 0.00 64 1010.6
20260508173134 56 60 3.5 7.0 0.00 0.01 0.00 63 1010.1
20260508172233 56 30 1.7 5.2 0.00 0.01 0.00 62 1010.0
20260508171334 56 17 2.6 9.6 0.00 0.01 0.00 60 1010.3
20260508170434 56 8 3.5 8.7 0.00 0.01 0.00 58 1009.9
20260508165534 57 14 3.5 5.2 0.00 0.01 0.00 55 1009.8
20260508164633 57 24 1.7 4.3 0.00 0.01 0.00 55 1009.6
20260508163734 57 16 3.5 7.8 0.00 0.01 0.00 54 1009.6
20260508162833 56 346 3.5 6.1 0.00 0.01 0.00 53 1009.4
20260508161934 56 350 1.7 3.5 0.00 0.01 0.00 52 1009.8
20260508160133 57 33 1.7 4.3 0.00 0.01 0.00 50 1009.8
20260508155234 56 13 2.6 6.1 0.00 0.01 0.00 50 1010.0
20260508153434 56 317 2.6 4.3 0.00 0.01 0.00 50 1009.6
20260508152534 56 343 1.7 9.6 0.00 0.01 0.00 50 1010.1
20260508151634 56 343 1.7 3.5 0.00 0.01 0.00 50 1010.0